This is the latest recevied weather packets stored in our database for station/object AA8FM-13. If no packets are shown the sender has not sent any weather packets the latest 10 day(s).
| Time | Temp. | Humidity | Pressure | Rain* | Wind** | Luminosity | Snow |
|---|---|---|---|---|---|---|---|
| 1777871732 | 8.89° C | 66% | 1012 hPa | 0 mm | - | 0 W/m² | - |
| 1777871428 | 8.89° C | 64% | 1012.1 hPa | 0 mm | - | 0 W/m² | - |
| 1777871126 | 8.89° C | 63% | 1012 hPa | 0 mm | - | 0 W/m² | - |
| 1777870823 | 8.89° C | 64% | 1011.7 hPa | 0 mm | - | 0 W/m² | - |
| 1777870519 | 8.89° C | 65% | 1012 hPa | 0 mm | - | 0 W/m² | - |
| 1777870215 | 8.89° C | 65% | 1012 hPa | 0 mm | - | 0 W/m² | - |
| 1777869913 | 8.89° C | 65% | 1012 hPa | 0 mm | - | 0 W/m² | - |
| 1777869609 | 8.89° C | 64% | 1012 hPa | 0 mm | - | 0 W/m² | - |
| 1777869306 | 9.44° C | 62% | 1012 hPa | 0 mm | - | 0 W/m² | - |
| 1777869004 | 10° C | 64% | 1011.9 hPa | 0 mm | - | 0 W/m² | - |
| 1777868700 | 10° C | 59% | 1011.9 hPa | 0 mm | - | 0 W/m² | - |
| 1777868397 | 10° C | 61% | 1011.9 hPa | 0 mm | - | 0 W/m² | - |
| 1777868093 | 10° C | 65% | 1012.1 hPa | 0 mm | - | 0 W/m² | - |
| 1777867789 | 10° C | 65% | 1012 hPa | 0 mm | - | 0 W/m² | - |
| 1777867487 | 10° C | 65% | 1012 hPa | 0 mm | - | 0 W/m² | - |
| 1777867183 | 9.44° C | 64% | 1012.1 hPa | 0 mm | - | 0 W/m² | - |
| 1777866881 | 9.44° C | 69% | 1012 hPa | 0 mm | - | 0 W/m² | - |
| 1777866577 | 9.44° C | 69% | 1011.9 hPa | 0 mm | - | 0 W/m² | - |
| 1777866275 | 8.89° C | 69% | 1012.1 hPa | 0 mm | - | 0 W/m² | - |
| 1777865971 | 8.89° C | 78% | 1011.9 hPa | 0 mm | - | 0 W/m² | - |
| 1777865669 | 8.89° C | 78% | 1012.1 hPa | 0 mm | - | 0 W/m² | - |
| 1777865366 | 8.33° C | 74% | 1012.1 hPa | 0 mm | - | 0 W/m² | - |
| 1777865063 | 8.33° C | 78% | 1011.9 hPa | 0 mm | - | 0 W/m² | - |
| 1777864760 | 8.33° C | 78% | 1012.2 hPa | 0 mm | - | 0 W/m² | - |
| 1777864457 | 7.78° C | 77% | 1012.1 hPa | 0 mm | - | 0 W/m² | - |
* Rain latest hour (hover to see other rain measurements)
** Current wind speed in m/s (hover to see current wind gust speed)